EW8328 Weather Reports


time (UTC)temp
F
wind
direction
speed
knots
gust
knots
rain 1hr
in
rain 24hr
in
rain mn
in
humidity
%
barometer
mb
20260505001854 44 300 1.7 4.3 0.00 0.00 0.00 83 1014.2
20260505001353 45 293 0.9 2.6 0.00 0.00 0.00 83 1014.2
20260505000854 45 321 0.9 2.6 0.00 0.00 0.00 83 1014.2
20260504235354 45 304 1.7 2.6 0.00 0.00 0.00 84 1014.2
20260504234854 45 325 0.9 2.6 0.00 0.00 0.00 84 1014.3
20260504234354 44 300 0.9 2.6 0.00 0.00 0.00 83 1014.3
20260504233354 45 309 0.9 1.7 0.00 0.00 0.00 83 1014.3
20260504232854 45 309 0.9 2.6 0.00 0.00 0.00 83 1014.3
20260504232353 45 308 0.9 2.6 0.00 0.00 0.00 83 1014.2
20260504231854 45 302 0.9 2.6 0.00 0.00 0.00 84 1014.2
20260504231354 45 292 0.0 1.7 0.00 0.00 0.00 84 1014.3
20260504230937 45 303 0.9 2.6 0.00 0.00 0.00 84 1014.3
20260504225354 45 304 0.9 2.6 0.00 0.00 0.00 85 1014.3
20260504224854 45 238 0.9 2.6 0.00 0.00 0.00 84 1014.3
20260504224354 45 252 0.9 2.6 0.00 0.00 0.00 85 1014.3
20260504223354 46 252 1.7 2.6 0.00 0.00 0.00 85 1014.4
20260504222354 46 277 0.9 2.6 0.00 0.00 0.00 85 1014.6
20260504221854 46 248 0.9 2.6 0.00 0.00 0.00 84 1014.6
20260504221354 46 248 0.9 2.6 0.00 0.00 0.00 84 1014.6
20260504220854 46 231 0.9 2.6 0.00 0.00 0.00 84 1014.6
20260504215853 47 305 0.9 2.6 0.00 0.00 0.00 84 1014.6
20260504215354 47 314 0.9 2.6 0.00 0.00 0.00 83 1014.5
20260504214853 47 304 0.9 2.6 0.00 0.00 0.00 83 1014.5
20260504214354 47 273 0.9 2.6 0.00 0.00 0.00 83 1014.5
20260504213353 48 272 0.9 2.6 0.00 0.00 0.00 83 1014.5
20260504212854 48 270 0.9 2.6 0.00 0.00 0.00 83 1014.6
20260504212354 48 270 0.9 2.6 0.00 0.00 0.00 83 1014.6
20260504211854 48 270 0.9 2.6 0.00 0.00 0.00 83 1014.7
20260504211354 48 270 0.9 1.7 0.00 0.00 0.00 83 1014.7
20260504210853 49 270 0.9 2.6 0.00 0.00 0.00 83 1014.7
20260504210354 49 275 0.9 1.7 0.00 0.00 0.00 83 1014.7
20260504205853 49 275 0.9 1.7 0.00 0.00 0.00 83 1014.7
20260504205354 49 275 0.9 1.7 0.00 0.00 0.00 83 1014.7
20260504204854 49 275 0.9 2.6 0.00 0.00 0.00 83 1014.7
20260504204354 50 275 0.0 2.6 0.00 0.00 0.00 82 1014.7
20260504203853 50 275 0.0 1.7 0.00 0.00 0.00 82 1014.7
20260504203355 50 275 0.0 1.7 0.00 0.00 0.00 82 1014.6
20260504202353 50 275 0.9 2.6 0.00 0.00 0.00 82 1014.6
20260504201854 51 245 0.9 2.6 0.00 0.00 0.00 82 1014.6
20260504201354 51 286 0.9 2.6 0.00 0.00 0.00 82 1014.6
20260504200854 51 270 1.7 2.6 0.00 0.00 0.00 82 1014.6
20260504200354 51 266 0.9 2.6 0.00 0.00 0.00 82 1014.6
20260504195354 51 236 0.9 2.6 0.00 0.00 0.00 81 1014.5
20260504194854 51 236 1.7 2.6 0.00 0.00 0.00 81 1014.5
20260504194354 51 247 1.7 2.6 0.00 0.00 0.00 81 1014.4
20260504193854 52 270 0.9 2.6 0.00 0.00 0.00 81 1014.3
20260504192854 52 264 1.7 5.2 0.00 0.00 0.00 79 1014.3
20260504192353 52 289 0.9 5.2 0.00 0.00 0.00 79 1014.2
20260504191854 53 293 1.7 5.2 0.00 0.00 0.00 78 1014.1
20260504191354 53 266 1.7 6.1 0.00 0.00 0.00 78 1014.1
20260504190854 53 278 1.7 6.1 0.00 0.00 0.00 77 1014.0
20260504190354 54 288 1.7 6.1 0.00 0.00 0.00 77 1014.1
20260504185854 54 279 2.6 5.2 0.00 0.00 0.00 77 1014.0
20260504185354 54 282 2.6 6.1 0.00 0.00 0.00 77 1014.0
20260504184854 54 275 1.7 6.1 0.00 0.00 0.00 77 1014.0
20260504184353 55 281 1.7 2.6 0.00 0.00 0.00 77 1014.1
20260504183854 55 300 1.7 2.6 0.00 0.00 0.00 77 1014.0
20260504183353 55 299 1.7 6.1 0.00 0.00 0.00 77 1014.0
20260504181853 55 239 0.9 2.6 0.00 0.00 0.00 78 1013.9
20260504181353 55 236 0.9 1.7 0.00 0.00 0.00 78 1013.9
20260504180854 55 212 0.0 0.9 0.00 0.00 0.00 78 1013.9
20260504180353 55 212 0.9 1.7 0.00 0.00 0.00 78 1013.9
20260504175854 55 212 0.0 0.9 0.00 0.00 0.00 78 1013.9
20260504175354 55 212 0.9 1.7 0.00 0.00 0.00 78 1013.9
20260504174853 55 212 0.0 1.7 0.00 0.00 0.00 78 1013.9
20260504174354 55 212 0.0 1.7 0.00 0.00 0.00 78 1013.9
20260504173854 55 212 0.0 1.7 0.00 0.00 0.00 77 1013.9
20260504172854 55 269 0.0 1.7 0.00 0.00 0.00 78 1013.9
20260504172353 55 269 0.0 1.7 0.00 0.00 0.00 78 1013.9
20260504171854 55 281 0.9 2.6 0.00 0.00 0.00 78 1013.9
20260504171354 55 325 0.0 0.9 0.00 0.00 0.00 78 1014.0
20260504170853 55 325 0.9 1.7 0.00 0.00 0.00 78 1014.0
20260504170353 55 325 0.0 1.7 0.00 0.00 0.00 78 1014.0
20260504160353 58 203 1.7 2.6 0.00 0.00 0.00 68 1014.1
20260504150853 59 173 4.3 7.0 0.00 0.00 0.00 65 1014.3
20260504150353 58 169 1.7 6.1 0.00 0.00 0.00 66 1014.4
20260504140854 57 209 1.7 5.2 0.00 0.00 0.00 68 1014.7
20260504140353 57 242 0.9 1.7 0.00 0.00 0.00 68 1014.8
20260504130353 56 215 0.9 2.6 0.00 0.00 0.00 71 1015.1
20260504110354 53 168 2.6 5.2 0.00 0.03 0.00 76 1015.3
20260504081853 48 94 1.7 4.3 0.00 0.06 0.00 87 1015.2
20260504081353 48 92 0.9 2.6 0.00 0.07 0.00 87 1015.2
20260504080853 48 92 1.7 5.2 0.00 0.07 0.00 88 1015.2
20260504080353 47 85 1.7 5.2 0.00 0.07 0.00 88 1015.1
20260504070353 46 102 0.0 1.7 0.00 0.09 0.00 92 1014.7
20260504050353 45 15 1.7 4.3 0.00 0.09 0.00 93 1013.9
20260504044853 45 18 0.9 2.6 0.00 0.09 0.00 93 1013.9
20260504044352 45 15 1.7 4.3 0.00 0.09 0.00 93 1013.8
20260504043853 45 353 0.9 2.6 0.00 0.09 0.00 93 1013.8
20260504043352 45 25 0.9 2.6 0.00 0.09 0.00 92 1013.8
20260504042853 45 0 0.9 2.6 0.00 0.09 0.00 92 1013.8
20260504042352 45 340 0.0 2.6 0.00 0.09 0.00 92 1013.7
20260504041853 45 355 0.9 2.6 0.00 0.09 0.00 92 1013.7
20260504041353 45 32 0.9 2.6 0.00 0.09 0.00 92 1013.7
20260504040853 45 24 0.9 2.6 0.00 0.09 0.00 93 1013.7
20260504040353 45 18 0.9 2.6 0.00 0.09 0.00 93 1013.8
20260504035853 45 32 1.7 2.6 0.00 0.09 0.00 93 1013.7
20260504035352 45 36 0.9 2.6 0.00 0.09 0.00 92 1013.6
20260504034352 45 30 1.7 4.3 0.00 0.09 0.00 92 1013.6
20260504033853 45 327 0.9 2.6 0.00 0.09 0.00 93 1013.5
20260504033353 45 59 0.9 2.6 0.00 0.09 0.00 92 1013.5
20260504032853 45 62 0.9 1.7 0.00 0.09 0.00 92 1013.5
20260504032352 45 62 0.9 2.6 0.00 0.10 0.00 92 1013.5
20260504031853 45 97 0.9 2.6 0.00 0.10 0.00 92 1013.4
20260504031353 45 88 0.9 1.7 0.00 0.11 0.00 92 1013.5
20260504030853 45 33 0.0 1.7 0.00 0.11 0.00 92 1013.5
20260504030352 45 33 0.9 1.7 0.00 0.11 0.00 92 1013.5
20260504025853 45 33 0.9 4.3 0.00 0.11 0.00 92 1013.5
20260504025352 45 117 0.9 2.6 0.00 0.11 0.00 92 1013.4
20260504024852 45 117 0.9 1.7 0.00 0.11 0.00 92 1013.4
20260504024353 45 117 0.0 1.7 0.00 0.11 0.00 92 1013.4
20260504023853 45 117 1.7 4.3 0.00 0.11 0.00 92 1013.4
20260504023353 45 0 0.9 2.6 0.00 0.12 0.00 92 1013.4
20260504022852 45 41 0.0 4.3 0.00 0.12 0.00 92 1013.4
20260504022352 45 60 1.7 4.3 0.00 0.13 0.00 92 1013.3
20260504021853 45 62 0.9 2.6 0.00 0.13 0.00 92 1013.3
20260504020853 45 70 0.9 2.6 0.00 0.13 0.00 92 1013.3
20260504020353 45 348 1.7 2.6 0.00 0.13 0.00 92 1013.3
20260504015853 45 65 0.0 1.7 0.00 0.14 0.00 92 1013.4
20260504015352 45 9 0.9 2.6 0.00 0.14 0.00 92 1013.3
20260504014852 45 40 0.9 4.3 0.00 0.14 0.00 92 1013.3
20260504014352 45 15 1.7 5.2 0.00 0.14 0.00 92 1013.3
20260504013352 46 286 0.9 2.6 0.00 0.15 0.00 92 1013.3
20260504012353 46 43 0.9 2.6 0.00 0.15 0.00 92 1013.2
20260504011852 46 72 0.9 4.3 0.00 0.16 0.00 92 1013.1
20260504010852 46 8 1.7 4.3 0.00 0.17 0.00 92 1013.1
20260504010352 46 5 0.9 2.6 0.00 0.17 0.00 92 1013.1
20260504005853 46 3 0.9 1.7 0.00 0.18 0.00 92 1013.1
20260504005352 46 98 0.9 2.6 0.00 0.18 0.00 92 1013.0
20260504004852 46 9 0.9 2.6 0.00 0.19 0.00 92 1013.0
20260504003853 46 69 1.7 2.6 0.00 0.20 0.00 92 1013.0
20260504003352 46 142 0.9 2.6 0.00 0.21 0.00 93 1013.0
20260504002853 46 75 0.9 2.6 0.00 0.21 0.00 93 1013.0
20260504002352 46 72 0.0 1.7 0.00 0.22 0.00 93 1012.9